QPF
0.00 0.00 0.00 0.00 0.00 0.00 0.00 0.00 0.00 0.00 0.00 0.00 0.00 0.00 0.00 0.00 0.00 0.00 0.00 0.00 0.00 0.00 0.00 0.00 0.00 0.00 0.00 0.00 0.00 0.00 0.00 0.00 0.00 0.00 0.00 0.00 0.00 0.00 0.00 0.00 0.00 0.00 0.00
0.00 0.00 0.00 0.00 0.00 0.00 0.00 0.00 0.00 0.00 0.00 0.00 0.00 0.00 0.00 0.00 0.00 0.00 0.00 0.00 0.00 0.00 0.00 0.00 0.00 0.00 0.00 0.00 0.00 0.00 0.00 0.00 0.00 0.00 0.00 0.00 0.00 0.00 0.00 0.00 0.00 0.00 0.00
0.00 0.00 0.00 0.00 0.00 0.00 0.00 0.00 0.00 0.00 0.00 0.00 0.00 0.00 0.00 0.00 0.00 0.00 0.00 0.00 0.00 0.00 0.00 0.00 0.00 0.00 0.00 0.00 0.00 0.00 0.00 0.00 0.00 0.00 0.00 0.00 0.00 0.00 0.00 0.00 0.00 0.00 0.00
0.00 0.00 0.00 0.00 0.00 0.00 0.00 0.00 0.00 0.00 0.00 0.00 0.00 0.00 0.00 0.00 0.00 0.00 0.00 0.00 0.00 0.00 0.00 0.00 0.00 0.00 0.00 0.00 0.00 0.00 0.00 0.00 0.00 0.00 0.00 0.00 0.00 0.00 0.00 0.00 0.00 0.00 0.00
0.00 0.00 0.00 0.00 0.00 0.00 0.00 0.00 0.00 0.00 0.00 0.00 0.00 0.00 0.00 0.00 0.00 0.00 0.00 0.00 0.00 0.00 0.00 0.00 0.00 0.00 0.00 0.00 0.00 0.00 0.00 0.00 0.00 0.00 0.00 0.00 0.00 0.00 0.00 0.00 0.00 0.00 0.00
0.00 0.00 0.00 0.00 0.00 0.00 0.00 0.00 0.00 0.00 0.00 0.00 0.00 0.00 0.00 0.00 0.00 0.00 0.00 0.00 0.00 0.00 0.00 0.00 0.00 0.00 0.00 0.00 0.00 0.00 0.00 0.00 0.00 0.00 0.00 0.00 0.00 0.00 0.00 0.00 0.00 0.00 0.00
0.00 0.00 0.00 0.00 0.00 0.00 0.00 0.00 0.00 0.00 0.00 0.00 0.00 0.00 0.00 0.00 0.00 0.00 0.00 0.00 0.00 0.00 0.00 0.00 0.00 0.00 0.00 0.00 0.00 0.00 0.00 0.00 0.00 0.01 0.00 0.00 0.00 0.00 0.00 0.00 0.01 0.01 0.00
0.00 0.00 0.00 0.00 0.00 0.00 0.00 0.00 0.00 0.00 0.00 0.00 0.00 0.00 0.00 0.00 0.00 0.00 0.00 0.00 0.00 0.00 0.00 0.00 0.00 0.00 0.00 0.00 0.00 0.00 0.00 0.00 0.00 0.00 0.00 0.00 0.00 0.00 0.01 0.01 0.01 0.00 0.00
0.00 0.00 0.00 0.00 0.00 0.00 0.00 0.00 0.00 0.00 0.00 0.00 0.00 0.00 0.00 0.00 0.00 0.00 0.00 0.00 0.00 0.00 0.00 0.00 0.00 0.00 0.00 0.00 0.00 0.00 0.00 0.00 0.00 0.00 0.00 0.01 0.01 0.00 0.00 0.00 0.00 0.01 0.00
0.00 0.00 0.00 0.00 0.00 0.00 0.00 0.00 0.00 0.00 0.00 0.00 0.00 0.00 0.00 0.00 0.00 0.00 0.00 0.00 0.00 0.00 0.00 0.00 0.00 0.00 0.00 0.01 0.01 0.00 0.00 0.00 0.00 0.00 0.00 0.00 0.00 0.00 0.00 0.00 0.00 0.01 0.01
0.00 0.00 0.00 0.00 0.00 0.00 0.00 0.00 0.00 0.00 0.00 0.00 0.00 0.00 0.00 0.00 0.00 0.00 0.00 0.00 0.00 0.00 0.00 0.00 0.00 0.00 0.00 0.00 0.01 0.01 0.00 0.00 0.00 0.00 0.00 0.00 0.00 0.00 0.00 0.00 0.00 0.00 0.01
0.00 0.00 0.00 0.00 0.00 0.00 0.00 0.00 0.00 0.00 0.00 0.00 0.00 0.00 0.00 0.00 0.00 0.00 0.00 0.00 0.00 0.00 0.00 0.00 0.00 0.00 0.01 0.03 0.02 0.00 0.00 0.00 0.00 0.00 0.00 0.00 0.00 0.00 0.00 0.00 0.00 0.00 0.00
0.00 0.00 0.00 0.00 0.00 0.00 0.00 0.00 0.00 0.00 0.00 0.00 0.00 0.00 0.00 0.00 0.00 0.00 0.00 0.00 0.00 0.00 0.00 0.00 0.01 0.01 0.01 0.00 0.00 0.00 0.00 0.00 0.00 0.00 0.00 0.00 0.00 0.00 0.00 0.00 0.00 0.00 0.00
0.00 0.00 0.00 0.00 0.00 0.00 0.00 0.00 0.00 0.00 0.00 0.00 0.00 0.00 0.00 0.00 0.00 0.00 0.00 0.00 0.00 0.00 0.00 0.00 0.01 0.01 0.00 0.00 0.00 0.00 0.00 0.00 0.00 0.00 0.00 0.00 0.00 0.00 0.00 0.00 0.00 0.00 0.00
0.00 0.00 0.00 0.00 0.00 0.00 0.00 0.00 0.00 0.00 0.00 0.00 0.00 0.00 0.00 0.00 0.00 0.00 0.00 0.00 0.00 0.00 0.00 0.00 0.00 0.00 0.00 0.00 0.00 0.00 0.00 0.00 0.00 0.00 0.00 0.00 0.00 0.00 0.00 0.00 0.00 0.00 0.00
0.00 0.00 0.00 0.00 0.00 0.00 0.00 0.00 0.00 0.00 0.00 0.00 0.00 0.00 0.00 0.00 0.00 0.00 0.00 0.00 0.01 0.01 0.01 0.00 0.00 0.00 0.00 0.00 0.00 0.00 0.00 0.00 0.00 0.00 0.00 0.00 0.00 0.00 0.00 0.00 0.00 0.00 0.00
0.00 0.00 0.00 0.00 0.00 0.00 0.00 0.00 0.00 0.00 0.00 0.00 0.00 0.00 0.00 0.00 0.00 0.00 0.00 0.00 0.01 0.01 0.00 0.00 0.00 0.00 0.00 0.00 0.00 0.00 0.00 0.00 0.00 0.00 0.00 0.00 0.00 0.00 0.00 0.00 0.00 0.00 0.00
0.00 0.00 0.00 0.00 0.00 0.00 0.00 0.00 0.00 0.00 0.00 0.00 0.00 0.00 0.00 0.00 0.00 0.00 0.00 0.00 0.00 0.00 0.00 0.00 0.00 0.00 0.00 0.00 0.00 0.00 0.00 0.00 0.00 0.00 0.00 0.00 0.00 0.00 0.00 0.00 0.00 0.00 0.00
0.00 0.00 0.00 0.00 0.00 0.00 0.00 0.00 0.00 0.00 0.00 0.00 0.00 0.00 0.00 0.00 0.00 0.00 0.00 0.00 0.00 0.00 0.00 0.00 0.00 0.00 0.00 0.00 0.00 0.00 0.00 0.00 0.00 0.00 0.00 0.00 0.00 0.00 0.00 0.00 0.00 0.00 0.00
0.00 0.00 0.00 0.00 0.00 0.00 0.00 0.00 0.00 0.00 0.00 0.00 0.00 0.00 0.00 0.00 0.00 0.00 0.00 0.00 0.00 0.00 0.00 0.00 0.00 0.00 0.00 0.00 0.00 0.00 0.00 0.00 0.00 0.00 0.00 0.00 0.00 0.00 0.00 0.00 0.00 0.00 0.00
0.00 0.00 0.00 0.00 0.00 0.00 0.00 0.00 0.00 0.00 0.00 0.00 0.00 0.00 0.00 0.00 0.00 0.00 0.00 0.00 0.00 0.00 0.00 0.00 0.00 0.00 0.00 0.00 0.00 0.00 0.00 0.00 0.00 0.00 0.00 0.00 0.00 0.00 0.00 0.00 0.00 0.00 0.00
0.00 0.00 0.00 0.00 0.00 0.00 0.00 0.00 0.00 0.00 0.00 0.00 0.00 0.00 0.00 0.00 0.00 0.00 0.00 0.00 0.00 0.00 0.00 0.00 0.00 0.00 0.00 0.00 0.00 0.00 0.00 0.00 0.00 0.00 0.00 0.00 0.00 0.00 0.00 0.00 0.00 0.00 0.00
0.00 0.00 0.00 0.00 0.00 0.00 0.00 0.00 0.00 0.00 0.00 0.00 0.00 0.00 0.00 0.00 0.00 0.00 0.00 0.00 0.00 0.00 0.00 0.00 0.00 0.00 0.00 0.00 0.00 0.00 0.00 0.00 0.00 0.00 0.00 0.00 0.00 0.00 0.00 0.00 0.00 0.00 0.00
0.00 0.00 0.00 0.00 0.00 0.00 0.00 0.00 0.00 0.00 0.00 0.00 0.00 0.00 0.00 0.00 0.00 0.00 0.00 0.00 0.00 0.00 0.00 0.00 0.00 0.00 0.00 0.00 0.00 0.00 0.00 0.00 0.00 0.00 0.00 0.00 0.00 0.00 0.00 0.00 0.00 0.00 0.00
0.00 0.00 0.00 0.00 0.00 0.00 0.00 0.00 0.00 0.00 0.00 0.00 0.00 0.00 0.00 0.00 0.00 0.00 0.00 0.00 0.00 0.00 0.00 0.00 0.00 0.00 0.00 0.00 0.00 0.00 0.00 0.00 0.00 0.00 0.00 0.00 0.00 0.00 0.00 0.00 0.00 0.00 0.00
0.00 0.00 0.00 0.00 0.00 0.00 0.00 0.00 0.00 0.00 0.00 0.00 0.00 0.00 0.00 0.00 0.00 0.00 0.00 0.00 0.00 0.00 0.00 0.00 0.00 0.00 0.00 0.00 0.00 0.00 0.00 0.00 0.00 0.00 0.00 0.00 0.00 0.00 0.00 0.00 0.00 0.00 0.00
MSLP
1019.08 1019.35 1020.13 1021.14 1021.80 1022.31 1022.84 1023.36 1023.77 1024.36 1024.91 1025.41 1025.83 1026.13 1026.30 1026.65 1026.93 1026.96 1027.13 1027.29 1027.43 1027.59 1027.69 1027.77 1027.82 1027.84 1027.69 1027.64 1027.61 1027.52 1027.36 1027.23 1026.53 1025.89 1025.94 1025.73 1025.42 1025.06 1024.62 1024.20 1023.69 1023.09 1022.48
1018.87 1019.71 1020.77 1021.49 1022.04 1022.59 1023.22 1023.67 1024.17 1024.65 1025.18 1025.60 1026.03 1026.27 1026.60 1026.95 1027.13 1027.16 1027.29 1027.44 1027.56 1027.65 1027.82 1027.88 1027.85 1027.79 1027.67 1027.57 1027.42 1027.21 1027.02 1026.79 1026.43 1025.54 1025.37 1025.11 1024.90 1024.49 1024.06 1023.62 1023.04 1022.62 1022.19
1019.25 1020.27 1021.20 1021.82 1022.37 1023.00 1023.62 1024.13 1024.56 1025.02 1025.62 1026.09 1026.32 1026.52 1026.85 1027.09 1027.19 1027.32 1027.40 1027.49 1027.60 1027.68 1027.74 1027.75 1027.68 1027.60 1027.41 1027.28 1027.15 1026.95 1026.73 1026.50 1026.26 1025.73 1024.93 1024.76 1024.40 1024.01 1023.44 1023.08 1022.60 1022.11 1021.70
1019.67 1020.55 1021.49 1022.18 1022.67 1023.36 1024.07 1024.61 1025.00 1025.47 1025.85 1026.28 1026.58 1026.79 1027.04 1027.18 1027.23 1027.30 1027.36 1027.42 1027.49 1027.54 1027.61 1027.62 1027.57 1027.46 1027.27 1027.01 1026.74 1026.41 1026.22 1026.00 1025.73 1025.33 1024.67 1024.09 1023.77 1023.53 1023.37 1022.91 1022.06 1021.81 1021.11
1020.09 1021.03 1021.92 1022.56 1023.16 1023.82 1024.49 1024.95 1025.29 1025.63 1026.12 1026.49 1026.73 1026.98 1027.15 1027.17 1027.13 1027.17 1027.17 1027.19 1027.28 1027.35 1027.43 1027.45 1027.33 1027.27 1026.93 1026.53 1026.21 1025.90 1025.77 1025.44 1025.15 1024.65 1024.10 1023.68 1023.29 1022.97 1022.84 1022.66 1022.10 1021.04 1020.45
1020.50 1021.48 1022.26 1022.85 1023.45 1024.14 1024.74 1025.08 1025.48 1025.97 1026.35 1026.59 1026.88 1027.07 1027.16 1027.12 1027.08 1026.86 1026.70 1026.91 1027.06 1027.14 1027.11 1026.99 1026.90 1026.73 1026.40 1026.08 1025.72 1025.41 1025.11 1024.68 1024.35 1024.05 1023.71 1023.32 1022.83 1022.69 1022.29 1021.94 1021.37 1020.56 1019.17
1020.82 1021.76 1022.41 1023.03 1023.74 1024.36 1024.77 1025.18 1025.63 1026.09 1026.49 1026.79 1026.94 1027.06 1027.20 1027.28 1027.02 1026.71 1026.52 1026.61 1026.76 1026.88 1026.89 1026.70 1026.43 1026.15 1025.89 1025.72 1025.38 1024.81 1024.44 1024.19 1023.82 1023.48 1023.04 1022.79 1022.24 1022.11 1021.73 1021.02 1020.61 1019.99 1019.19
1021.08 1021.81 1022.52 1023.16 1023.81 1024.41 1024.92 1025.40 1025.91 1026.30 1026.53 1026.79 1027.04 1027.18 1027.24 1027.22 1026.89 1026.59 1026.35 1026.35 1026.50 1026.42 1026.43 1026.34 1025.92 1025.54 1025.34 1024.97 1024.47 1024.02 1023.69 1023.42 1023.08 1022.92 1022.57 1022.14 1021.77 1021.41 1021.11 1020.57 1019.91 1019.36 1018.58
1021.27 1022.01 1022.70 1023.28 1023.99 1024.59 1025.15 1025.61 1025.96 1026.26 1026.60 1026.84 1027.04 1027.16 1027.17 1026.96 1026.69 1026.42 1026.25 1026.20 1026.09 1025.96 1025.70 1025.55 1025.21 1024.76 1024.45 1023.92 1023.42 1022.97 1022.60 1022.23 1022.06 1021.98 1021.68 1021.22 1020.79 1020.58 1020.40 1020.04 1019.41 1018.94 1017.85
1021.37 1022.07 1022.79 1023.42 1023.98 1024.60 1025.11 1025.62 1026.02 1026.29 1026.56 1026.83 1026.91 1026.88 1026.88 1026.88 1026.68 1026.26 1025.85 1025.65 1025.48 1025.20 1024.95 1024.74 1024.49 1024.10 1023.56 1023.14 1022.80 1022.34 1021.83 1021.55 1021.50 1021.35 1020.97 1020.45 1020.54 1020.28 1020.01 1019.74 1019.23 1018.63 1017.95
1021.60 1022.37 1023.09 1023.65 1024.18 1024.72 1025.19 1025.57 1025.97 1026.32 1026.55 1026.66 1026.68 1026.81 1026.82 1026.74 1026.46 1025.94 1025.47 1025.10 1024.87 1024.57 1024.41 1024.15 1023.98 1023.57 1023.00 1022.48 1021.97 1021.77 1021.30 1020.91 1020.68 1020.41 1020.33 1019.99 1019.81 1019.62 1019.32 1019.04 1018.77 1018.47 1017.82
1021.86 1022.63 1023.30 1023.84 1024.25 1024.73 1025.14 1025.64 1025.94 1026.16 1026.38 1026.61 1026.74 1026.60 1026.41 1026.23 1025.91 1025.53 1025.09 1024.71 1024.36 1024.08 1023.91 1023.70 1023.39 1022.88 1022.38 1021.92 1021.50 1021.38 1020.99 1020.63 1020.37 1020.11 1019.83 1019.53 1019.21 1018.92 1018.60 1018.31 1018.05 1017.75 1017.36
1022.14 1022.84 1023.46 1023.98 1024.39 1024.75 1025.10 1025.45 1025.85 1026.21 1026.30 1026.28 1026.20 1026.02 1025.79 1025.65 1025.48 1025.15 1024.73 1024.43 1024.12 1023.85 1023.59 1023.11 1022.46 1022.10 1021.79 1021.51 1021.37 1021.03 1020.61 1020.47 1020.16 1019.87 1019.50 1019.13 1018.82 1018.43 1018.09 1017.77 1017.37 1016.96 1016.48
1022.08 1022.82 1023.53 1024.07 1024.49 1024.81 1025.11 1025.40 1025.62 1025.85 1025.92 1025.85 1025.75 1025.58 1025.41 1025.28 1025.09 1024.82 1024.52 1024.21 1023.85 1023.46 1023.10 1022.54 1022.19 1021.81 1021.65 1021.32 1020.97 1020.70 1020.38 1020.15 1019.89 1019.49 1019.15 1018.78 1018.37 1017.92 1017.47 1017.09 1016.62 1016.24 1015.82
1022.14 1022.90 1023.53 1023.97 1024.35 1024.75 1025.05 1025.19 1025.25 1025.41 1025.54 1025.48 1025.33 1025.25 1024.97 1024.71 1024.48 1024.17 1023.87 1023.54 1023.20 1022.88 1022.30 1022.00 1021.88 1021.56 1021.18 1020.89 1020.62 1020.31 1020.04 1019.80 1019.49 1019.10 1018.68 1018.18 1017.68 1017.20 1016.77 1016.49 1016.07 1015.62 1015.32
1022.19 1022.87 1023.39 1023.85 1024.27 1024.60 1024.84 1025.05 1025.14 1024.98 1024.89 1024.83 1024.69 1024.53 1024.27 1024.03 1023.63 1023.31 1023.27 1023.05 1022.64 1022.23 1021.89 1021.88 1021.56 1021.29 1020.99 1020.66 1020.32 1019.92 1019.70 1019.39 1019.02 1018.62 1018.13 1017.63 1017.09 1016.57 1016.09 1015.75 1015.44 1015.02 1014.48
1022.05 1022.71 1023.31 1023.74 1024.13 1024.53 1024.85 1025.02 1024.99 1024.81 1024.80 1024.71 1024.50 1024.20 1023.87 1023.64 1023.32 1023.06 1022.88 1022.51 1022.09 1021.96 1021.96 1021.74 1021.48 1021.19 1020.88 1020.53 1020.14 1019.81 1019.40 1019.02 1018.66 1018.19 1017.59 1017.03 1016.50 1015.93 1015.44 1014.96 1014.55 1014.25 1013.75
1022.31 1022.61 1023.13 1023.63 1024.06 1024.41 1024.56 1024.66 1024.85 1024.99 1024.91 1024.73 1024.44 1024.04 1023.65 1023.30 1022.92 1022.78 1022.49 1022.04 1021.93 1021.89 1021.82 1021.63 1021.35 1021.04 1020.67 1020.29 1019.90 1019.49 1019.01 1018.58 1018.09 1017.52 1016.94 1016.34 1015.78 1015.26 1014.68 1014.18 1013.77 1013.38 1013.00
1022.36 1022.77 1023.21 1023.65 1024.05 1024.21 1024.37 1024.49 1024.61 1024.65 1024.62 1024.39 1024.10 1023.75 1023.46 1023.19 1022.78 1022.53 1022.37 1022.16 1021.84 1021.77 1021.63 1021.41 1021.11 1020.74 1020.35 1019.97 1019.56 1019.13 1018.68 1018.10 1017.49 1016.81 1016.23 1015.69 1015.11 1014.63 1013.98 1013.47 1012.95 1012.45 1011.99
1022.25 1022.56 1023.01 1023.52 1023.88 1023.98 1024.09 1024.21 1024.26 1024.29 1024.20 1024.04 1023.78 1023.54 1023.40 1023.08 1022.67 1022.39 1022.17 1021.93 1021.79 1021.60 1021.35 1021.00 1020.68 1020.29 1019.93 1019.57 1019.15 1018.69 1018.10 1017.45 1016.84 1016.22 1015.55 1014.98 1014.40 1013.92 1013.26 1012.66 1012.13 1011.59 1011.23
1022.15 1022.70 1023.01 1023.33 1023.51 1023.68 1023.80 1023.87 1023.93 1023.93 1023.84 1023.67 1023.45 1023.32 1022.84 1022.37 1022.26 1022.21 1021.99 1021.80 1021.57 1021.26 1020.97 1020.71 1020.33 1019.89 1019.52 1019.14 1018.65 1018.10 1017.52 1016.80 1016.16 1015.53 1014.89 1014.25 1013.73 1013.11 1012.49 1011.90 1011.32 1010.81 1010.44
1022.26 1022.73 1023.04 1023.19 1023.36 1023.39 1023.41 1023.48 1023.53 1023.53 1023.49 1023.29 1023.06 1022.87 1022.36 1022.16 1022.17 1022.02 1021.79 1021.52 1021.21 1020.92 1020.65 1020.33 1019.89 1019.43 1019.00 1018.55 1018.03 1017.42 1016.73 1016.01 1015.33 1014.78 1014.17 1013.59 1013.00 1012.34 1011.68 1011.09 1010.50 1010.01 1009.67
1022.25 1022.56 1022.71 1022.85 1022.98 1022.95 1022.91 1023.03 1023.10 1023.08 1023.00 1022.88 1022.69 1022.34 1022.11 1021.97 1021.84 1021.69 1021.48 1021.14 1020.82 1020.48 1020.17 1019.91 1019.47 1018.94 1018.43 1017.92 1017.31 1016.67 1016.00 1015.22 1014.60 1014.13 1013.44 1012.76 1012.06 1011.38 1010.76 1010.17 1009.65 1009.23 1009.09
1022.01 1022.28 1022.46 1022.58 1022.68 1022.68 1022.68 1022.70 1022.65 1022.59 1022.49 1022.32 1022.12 1021.94 1021.77 1021.61 1021.49 1021.33 1021.11 1020.77 1020.40 1020.06 1019.73 1019.40 1018.97 1018.47 1017.88 1017.23 1016.48 1015.79 1015.15 1014.44 1013.86 1013.15 1012.46 1011.60 1010.80 1010.01 1009.46 1009.04 1008.64 1008.57 1008.67
1021.78 1022.04 1022.17 1022.27 1022.38 1022.44 1022.40 1022.32 1022.24 1022.18 1022.02 1021.85 1021.68 1021.51 1021.31 1021.21 1021.10 1020.95 1020.67 1020.34 1019.99 1019.62 1019.17 1018.80 1018.30 1017.73 1017.20 1016.44 1015.67 1014.91 1014.21 1013.33 1012.37 1011.34 1010.37 1009.53 1008.95 1008.57 1008.17 1008.25 1008.19 1008.22 1008.36
1021.45 1021.68 1021.82 1022.04 1022.21 1022.15 1022.08 1021.99 1021.76 1021.66 1021.49 1021.34 1021.24 1021.09 1020.96 1020.81 1020.67 1020.50 1020.21 1019.87 1019.53 1019.13 1018.70 1018.16 1017.54 1017.05 1016.37 1015.55 1014.67 1014.00 1013.03 1012.05 1011.16 1010.11 1009.52 1009.19 1008.83 1008.49 1008.24 1007.95 1007.90 1007.97 1008.01
Thickness
5578 5576 5571 5563 5558 5553 5548 5543 5538 5531 5525 5518 5511 5505 5500 5493 5487 5482 5476 5470 5464 5458 5452 5446 5439 5434 5429 5424 5418 5412 5407 5402 5403 5403 5393 5386 5382 5377 5374 5371 5367 5365 5364
5569 5563 5555 5550 5545 5540 5534 5529 5523 5516 5510 5503 5496 5490 5484 5477 5471 5467 5461 5454 5448 5442 5434 5428 5422 5417 5411 5406 5400 5395 5389 5383 5381 5385 5377 5371 5364 5357 5353 5349 5347 5340 5334
5554 5547 5540 5536 5531 5526 5519 5513 5507 5501 5493 5485 5479 5474 5468 5461 5456 5451 5445 5438 5431 5425 5418 5412 5407 5401 5396 5389 5382 5377 5371 5365 5359 5359 5361 5353 5346 5335 5332 5325 5323 5316 5309
5541 5534 5527 5522 5517 5510 5502 5496 5490 5484 5477 5470 5464 5458 5452 5446 5441 5435 5429 5423 5416 5410 5403 5396 5390 5383 5377 5372 5366 5361 5355 5349 5343 5338 5336 5334 5325 5314 5302 5298 5304 5292 5291
5526 5520 5512 5506 5501 5494 5486 5480 5474 5469 5461 5454 5448 5442 5435 5430 5425 5419 5414 5409 5402 5394 5386 5378 5372 5366 5360 5355 5351 5346 5338 5332 5326 5320 5315 5309 5300 5293 5281 5275 5271 5275 5275
5512 5504 5498 5493 5486 5478 5471 5466 5460 5452 5445 5439 5432 5425 5420 5415 5409 5405 5401 5394 5385 5378 5371 5363 5357 5352 5347 5341 5335 5327 5320 5314 5307 5298 5292 5284 5279 5268 5264 5259 5253 5253 5261
5499 5491 5485 5478 5471 5464 5458 5452 5446 5438 5430 5423 5417 5410 5404 5399 5395 5390 5385 5379 5371 5363 5355 5350 5345 5338 5331 5325 5318 5311 5302 5289 5281 5277 5273 5266 5261 5247 5245 5245 5239 5238 5239
5485 5478 5471 5464 5457 5450 5444 5436 5428 5421 5415 5408 5402 5396 5389 5383 5378 5374 5369 5364 5357 5350 5342 5336 5331 5325 5316 5308 5304 5297 5287 5276 5267 5261 5253 5249 5240 5235 5227 5225 5227 5226 5229
5471 5463 5456 5449 5441 5434 5427 5419 5413 5407 5400 5394 5387 5380 5374 5369 5364 5359 5355 5349 5344 5337 5330 5322 5316 5310 5300 5293 5288 5283 5278 5271 5261 5251 5243 5236 5230 5223 5216 5213 5214 5212 5219
5456 5449 5441 5434 5428 5420 5412 5405 5398 5392 5385 5378 5372 5366 5361 5355 5349 5345 5342 5337 5333 5327 5319 5309 5300 5293 5286 5278 5269 5265 5264 5259 5251 5244 5236 5230 5220 5214 5207 5201 5201 5201 5202
5440 5432 5424 5417 5411 5404 5397 5391 5384 5376 5370 5364 5359 5352 5346 5341 5336 5332 5327 5323 5318 5314 5305 5297 5288 5279 5271 5263 5256 5250 5248 5245 5240 5233 5226 5221 5214 5208 5203 5198 5192 5188 5189
5424 5416 5409 5402 5396 5390 5383 5375 5369 5363 5356 5349 5342 5337 5333 5328 5323 5319 5314 5309 5303 5298 5289 5280 5272 5263 5256 5251 5245 5237 5231 5227 5223 5220 5215 5211 5207 5203 5199 5193 5188 5182 5178
5408 5401 5394 5387 5381 5375 5369 5362 5355 5347 5340 5336 5332 5328 5323 5316 5311 5305 5300 5293 5286 5278 5270 5262 5256 5249 5243 5238 5228 5223 5219 5214 5210 5207 5204 5202 5199 5195 5191 5186 5182 5178 5176
5395 5387 5379 5371 5365 5359 5353 5347 5340 5333 5328 5324 5320 5317 5311 5305 5298 5292 5285 5277 5267 5259 5251 5246 5239 5233 5226 5220 5216 5211 5207 5203 5200 5197 5196 5193 5190 5187 5183 5179 5177 5173 5171
5379 5371 5363 5357 5351 5344 5338 5333 5328 5322 5316 5310 5306 5303 5299 5294 5287 5280 5272 5263 5254 5246 5241 5234 5226 5219 5214 5209 5206 5203 5199 5195 5191 5189 5187 5185 5183 5180 5177 5172 5169 5166 5162
5365 5357 5350 5343 5337 5332 5325 5319 5315 5310 5306 5301 5296 5291 5287 5280 5274 5265 5254 5244 5237 5230 5224 5214 5209 5205 5202 5200 5198 5196 5192 5188 5185 5183 5180 5177 5175 5174 5171 5167 5162 5160 5158
5352 5344 5337 5331 5324 5318 5311 5306 5302 5297 5292 5285 5279 5274 5269 5263 5254 5246 5237 5231 5224 5215 5206 5201 5197 5195 5194 5192 5190 5188 5186 5182 5179 5176 5173 5171 5168 5167 5165 5163 5160 5156 5154
5335 5331 5324 5317 5311 5304 5300 5296 5290 5284 5278 5272 5264 5259 5254 5247 5239 5230 5224 5220 5211 5201 5196 5193 5191 5189 5187 5186 5184 5182 5180 5177 5174 5171 5168 5166 5164 5162 5161 5159 5157 5154 5151
5322 5316 5309 5304 5298 5294 5289 5284 5277 5271 5265 5260 5254 5246 5239 5232 5225 5216 5208 5203 5200 5194 5191 5188 5186 5184 5183 5181 5180 5178 5175 5173 5170 5168 5165 5162 5160 5157 5157 5156 5155 5154 5153
5310 5306 5300 5292 5287 5282 5277 5272 5265 5260 5254 5247 5241 5232 5225 5218 5210 5202 5197 5195 5192 5189 5187 5186 5183 5181 5180 5179 5177 5174 5172 5170 5167 5164 5162 5159 5157 5155 5154 5154 5153 5153 5153
5297 5291 5287 5281 5276 5270 5264 5259 5253 5247 5241 5233 5226 5218 5213 5208 5201 5194 5192 5189 5188 5187 5185 5182 5180 5179 5178 5177 5175 5173 5171 5169 5166 5162 5160 5159 5156 5154 5153 5152 5154 5155 5155
5283 5277 5271 5267 5262 5258 5252 5247 5240 5233 5226 5220 5213 5204 5201 5197 5192 5189 5187 5187 5186 5184 5182 5180 5179 5179 5178 5177 5175 5174 5173 5171 5168 5163 5161 5160 5157 5155 5155 5155 5157 5159 5161
5269 5264 5260 5255 5251 5247 5241 5234 5227 5220 5213 5207 5200 5197 5194 5190 5187 5185 5184 5184 5183 5182 5181 5179 5179 5179 5178 5177 5176 5176 5175 5174 5171 5166 5164 5163 5162 5161 5160 5161 5163 5165 5164
5257 5252 5248 5243 5238 5232 5226 5220 5213 5209 5204 5198 5194 5191 5189 5186 5184 5182 5182 5182 5181 5181 5180 5180 5180 5180 5180 5180 5180 5180 5178 5177 5176 5174 5172 5171 5172 5172 5171 5172 5173 5170 5167
5245 5240 5234 5229 5223 5218 5212 5207 5202 5196 5192 5190 5189 5187 5186 5183 5181 5179 5179 5180 5180 5180 5181 5181 5182 5183 5183 5184 5184 5185 5184 5184 5185 5188 5189 5190 5189 5187 5185 5180 5177 5174 5170
5231 5226 5221 5215 5208 5203 5200 5195 5191 5187 5186 5186 5184 5182 5181 5179 5178 5177 5177 5178 5178 5179 5181 5183 5185 5186 5187 5188 5190 5190 5191 5193 5195 5197 5196 5194 5193 5192 5189 5187 5184 5180 5177